Year,Month,Day,Hour,Minute,Value (Times are PST for temperature in C)
2007,06,26,00,00,11.30
2007,06,26,00,01,11.30
2007,06,26,00,02,11.20
2007,06,26,00,03,11.20
2007,06,26,00,04,11.20
2007,06,26,00,05,11.10
2007,06,26,00,06,11.10
2007,06,26,00,07,11.10
2007,06,26,00,08,11.10
2007,06,26,00,09,11.00
2007,06,26,00,10,11.00
2007,06,26,00,11,11.00
2007,06,26,00,12,10.90
2007,06,26,01,02,10.80
2007,06,26,01,03,10.80
2007,06,26,01,04,10.70
2007,06,26,01,05,10.70
2007,06,26,01,06,10.70
2007,06,26,01,07,10.70
2007,06,26,01,08,10.70
2007,06,26,01,09,10.70
2007,06,26,01,10,10.70
2007,06,26,01,11,10.70
2007,06,26,01,12,10.70
2007,06,26,01,13,10.70
2007,06,26,01,14,10.70
2007,06,26,01,15,10.70
2007,06,26,01,16,10.60
2007,06,26,01,17,10.60
2007,06,26,01,18,10.60
2007,06,26,01,19,10.60
2007,06,26,01,20,10.50
2007,06,26,01,21,10.50
2007,06,26,01,22,10.50
2007,06,26,01,23,10.40
2007,06,26,01,24,10.40
2007,06,26,01,25,10.40
2007,06,26,01,26,10.40
2007,06,26,01,27,10.30
2007,06,26,01,28,10.30
2007,06,26,01,29,10.30
2007,06,26,01,30,10.30
2007,06,26,01,31,10.20
2007,06,26,01,32,10.20
2007,06,26,01,33,10.20
2007,06,26,01,34,10.20
2007,06,26,01,35,10.20
2007,06,26,01,36,10.20
2007,06,26,01,37,10.20
2007,06,26,01,38,10.20
2007,06,26,01,39,10.20
2007,06,26,01,40,10.20
2007,06,26,01,41,10.20
2007,06,26,01,42,10.20
2007,06,26,01,43,10.20
2007,06,26,01,44,10.20
2007,06,26,01,45,10.20
2007,06,26,01,46,10.20
2007,06,26,01,47,10.20
2007,06,26,01,48,10.20
2007,06,26,01,49,10.10
2007,06,26,01,50,10.10
2007,06,26,01,51,10.10
2007,06,26,01,52,10.10
2007,06,26,01,53,10.10
2007,06,26,01,54,10.10
2007,06,26,01,55,10.10
2007,06,26,01,56,10.10
2007,06,26,01,57,10.10
2007,06,26,01,58,10.00
2007,06,26,01,59,10.00
2007,06,26,02,00,10.00
2007,06,26,02,01,9.90
2007,06,26,02,02,9.90
2007,06,26,02,03,9.90
2007,06,26,02,04,9.90
2007,06,26,02,05,9.90
2007,06,26,02,06,9.90
2007,06,26,02,07,9.90
2007,06,26,02,08,9.90
2007,06,26,02,09,9.90
2007,06,26,02,10,9.90
2007,06,26,02,11,9.90
2007,06,26,02,12,9.90
2007,06,26,02,13,9.90
2007,06,26,02,14,9.90
2007,06,26,02,15,10.00
2007,06,26,02,16,10.00
2007,06,26,02,17,10.00
2007,06,26,02,18,10.00
2007,06,26,02,19,10.00
2007,06,26,02,20,10.00
2007,06,26,02,21,10.00
2007,06,26,02,22,10.10
2007,06,26,02,23,10.10
2007,06,26,02,24,10.10
2007,06,26,02,25,10.10
2007,06,26,02,26,10.00
2007,06,26,02,27,10.00
2007,06,26,02,28,10.00
2007,06,26,02,29,10.00
2007,06,26,02,30,9.90
2007,06,26,02,31,10.00
2007,06,26,02,32,10.00
2007,06,26,02,33,10.10
2007,06,26,02,34,10.10
2007,06,26,02,35,10.10
2007,06,26,02,36,10.10
2007,06,26,02,37,10.20
2007,06,26,02,38,10.20
2007,06,26,02,39,10.20
2007,06,26,02,40,10.20
2007,06,26,02,41,10.20
2007,06,26,02,42,10.20
2007,06,26,02,43,10.20
2007,06,26,02,44,10.20
2007,06,26,02,45,10.20
2007,06,26,02,46,10.20
2007,06,26,02,47,10.30
2007,06,26,02,48,10.30
2007,06,26,02,49,10.30
2007,06,26,02,50,10.30
2007,06,26,02,51,10.30
2007,06,26,02,52,10.30
2007,06,26,02,53,10.30
2007,06,26,02,54,10.30
2007,06,26,02,55,10.20
2007,06,26,02,56,10.20
2007,06,26,02,57,10.20
2007,06,26,02,58,10.20
2007,06,26,02,59,10.20
2007,06,26,03,00,10.20
2007,06,26,03,01,10.20
2007,06,26,03,02,10.20
2007,06,26,03,03,10.20
2007,06,26,03,04,10.20
2007,06,26,03,05,10.20
2007,06,26,03,06,10.20
2007,06,26,03,07,10.20
2007,06,26,03,08,10.20
2007,06,26,03,09,10.20
2007,06,26,03,10,10.20
2007,06,26,03,11,10.20
2007,06,26,03,12,10.20
2007,06,26,03,13,10.30
2007,06,26,03,14,10.30
2007,06,26,03,15,10.30
2007,06,26,03,16,10.20
2007,06,26,03,17,10.20
2007,06,26,03,18,10.20
2007,06,26,03,19,10.20
2007,06,26,03,20,10.20
2007,06,26,03,21,10.20
2007,06,26,03,22,10.20
2007,06,26,03,23,10.20
2007,06,26,03,24,10.20
2007,06,26,03,25,10.10
2007,06,26,03,26,10.10
2007,06,26,03,27,10.10
2007,06,26,03,28,10.10
2007,06,26,03,29,10.00
2007,06,26,03,30,10.00
2007,06,26,03,31,10.00
2007,06,26,03,32,9.90
2007,06,26,03,33,9.90
2007,06,26,03,34,9.90
2007,06,26,03,35,9.90
2007,06,26,03,36,9.90
2007,06,26,03,37,9.90
2007,06,26,03,38,9.90
2007,06,26,03,39,9.90
2007,06,26,03,40,9.80
2007,06,26,03,41,9.80
2007,06,26,03,42,9.80
2007,06,26,03,43,9.80
2007,06,26,03,44,9.80
2007,06,26,03,45,9.80
2007,06,26,03,46,9.80
2007,06,26,03,47,9.80
2007,06,26,03,48,9.80
2007,06,26,03,49,9.80
2007,06,26,03,50,9.80
2007,06,26,03,51,9.80
2007,06,26,03,52,9.80
2007,06,26,03,53,9.80
2007,06,26,03,54,9.80
2007,06,26,03,55,9.80
2007,06,26,03,56,9.80
2007,06,26,03,57,9.80
2007,06,26,03,58,9.90
2007,06,26,03,59,9.90
2007,06,26,04,00,9.90
2007,06,26,04,01,9.90
2007,06,26,04,02,9.90
2007,06,26,04,03,9.90
2007,06,26,04,04,9.90
2007,06,26,04,05,9.90
2007,06,26,04,06,10.00
2007,06,26,04,07,10.00
2007,06,26,04,08,10.00
2007,06,26,04,09,10.00
2007,06,26,04,10,10.10
2007,06,26,04,11,10.10
2007,06,26,04,12,10.10
2007,06,26,04,13,10.10
2007,06,26,04,14,10.10
2007,06,26,04,15,10.10
2007,06,26,04,16,10.10
2007,06,26,04,17,10.10
2007,06,26,04,18,10.10
2007,06,26,04,19,10.10
2007,06,26,04,20,10.10
2007,06,26,04,21,10.10
2007,06,26,04,22,10.10
2007,06,26,04,23,10.10
2007,06,26,04,24,10.10
2007,06,26,04,25,10.10
2007,06,26,04,26,10.10
2007,06,26,04,27,10.10
2007,06,26,04,28,10.10
2007,06,26,04,29,10.10
2007,06,26,04,30,10.10
2007,06,26,04,31,10.10
2007,06,26,04,32,10.10
2007,06,26,04,33,10.10
2007,06,26,04,34,10.10
2007,06,26,04,35,10.10
2007,06,26,04,36,10.10
2007,06,26,04,37,10.10
2007,06,26,04,38,10.10
2007,06,26,04,39,10.10
2007,06,26,04,40,10.00
2007,06,26,04,41,10.00
2007,06,26,04,42,9.90
2007,06,26,04,43,9.90
2007,06,26,04,44,9.90
2007,06,26,04,45,9.80
2007,06,26,04,46,9.80
2007,06,26,04,47,9.80
2007,06,26,04,48,9.80
2007,06,26,04,49,9.70
2007,06,26,04,50,9.70
2007,06,26,04,51,9.70
2007,06,26,04,52,9.70
2007,06,26,04,53,9.70
2007,06,26,04,54,9.70
2007,06,26,04,55,9.70
2007,06,26,04,56,9.60
2007,06,26,04,57,9.60
2007,06,26,04,58,9.60
2007,06,26,04,59,9.60
2007,06,26,05,00,9.60
2007,06,26,05,01,9.60
2007,06,26,05,02,9.60
2007,06,26,05,03,9.60
2007,06,26,05,04,9.50
2007,06,26,05,05,9.50
2007,06,26,05,06,9.50
2007,06,26,05,07,9.50
2007,06,26,05,08,9.50
2007,06,26,05,09,9.40
2007,06,26,05,10,9.40
2007,06,26,05,11,9.40
2007,06,26,05,12,9.40
2007,06,26,05,13,9.40
2007,06,26,05,14,9.40
2007,06,26,05,15,9.40
2007,06,26,05,16,9.30
2007,06,26,05,17,9.30
2007,06,26,05,18,9.30
2007,06,26,05,19,9.30
2007,06,26,05,20,9.30
2007,06,26,05,21,9.30
2007,06,26,05,22,9.20
2007,06,26,05,23,9.20
2007,06,26,05,24,9.20
2007,06,26,05,25,9.20
2007,06,26,05,26,9.20
2007,06,26,05,27,9.20
2007,06,26,05,28,9.20
2007,06,26,05,29,9.20
2007,06,26,05,30,9.10
2007,06,26,05,31,9.10
2007,06,26,05,32,9.10
2007,06,26,05,33,9.10
2007,06,26,05,34,9.10
2007,06,26,05,35,9.10
2007,06,26,05,36,9.10
2007,06,26,05,37,9.10
2007,06,26,05,38,9.10
2007,06,26,05,39,9.10
2007,06,26,05,40,9.10
2007,06,26,05,41,9.20
2007,06,26,05,42,9.20
2007,06,26,05,43,9.20
2007,06,26,05,44,9.20
2007,06,26,05,45,9.20
2007,06,26,05,46,9.30
2007,06,26,05,47,9.30
2007,06,26,05,48,9.30
2007,06,26,05,49,9.30
2007,06,26,05,50,9.40
2007,06,26,05,51,9.40
2007,06,26,05,52,9.40
2007,06,26,05,53,9.50
2007,06,26,05,54,9.50
2007,06,26,05,55,9.60
2007,06,26,05,56,9.60
2007,06,26,05,57,9.60
2007,06,26,05,58,9.60
2007,06,26,05,59,9.60
2007,06,26,06,00,9.60
2007,06,26,06,01,9.70
2007,06,26,06,02,9.70
2007,06,26,06,03,9.80
2007,06,26,06,04,9.80
2007,06,26,06,05,9.80
2007,06,26,06,06,9.80
2007,06,26,06,07,9.90
2007,06,26,06,08,9.90
2007,06,26,06,09,9.90
2007,06,26,06,10,10.00
2007,06,26,06,11,10.00
2007,06,26,06,12,10.10
2007,06,26,06,13,10.10
2007,06,26,06,14,10.20
2007,06,26,06,15,10.20
2007,06,26,06,16,10.30
2007,06,26,06,17,10.30
2007,06,26,06,18,10.40
2007,06,26,06,19,10.40
2007,06,26,06,20,10.40
2007,06,26,06,21,10.50
2007,06,26,06,22,10.50
2007,06,26,06,23,10.60
2007,06,26,06,24,10.60
2007,06,26,06,25,10.60
2007,06,26,06,26,10.70
2007,06,26,06,27,10.70
2007,06,26,06,28,10.70
2007,06,26,06,29,10.70
2007,06,26,06,30,10.70
2007,06,26,06,31,10.80
2007,06,26,06,32,10.80
2007,06,26,06,33,10.80
2007,06,26,06,34,10.80
2007,06,26,06,35,10.90
2007,06,26,06,36,11.00
2007,06,26,06,37,11.00
2007,06,26,06,38,11.00
2007,06,26,06,39,11.10
2007,06,26,06,40,11.20
2007,06,26,06,41,11.20
2007,06,26,06,42,11.30
2007,06,26,06,43,11.40
2007,06,26,06,44,11.40
2007,06,26,06,45,11.50
2007,06,26,06,46,11.60
2007,06,26,06,47,11.60
2007,06,26,06,48,11.70
2007,06,26,06,49,11.70
2007,06,26,06,50,11.70
2007,06,26,06,51,11.80
2007,06,26,06,52,11.90
2007,06,26,06,53,11.90
2007,06,26,06,54,12.00
2007,06,26,06,55,12.00
2007,06,26,06,56,12.10
2007,06,26,06,57,12.10
2007,06,26,06,58,12.20
2007,06,26,06,59,12.20
2007,06,26,07,00,12.20
2007,06,26,07,01,12.30
2007,06,26,07,02,12.30
2007,06,26,07,03,12.40
2007,06,26,07,04,12.40
2007,06,26,07,05,12.40
2007,06,26,07,06,12.40
2007,06,26,07,07,12.40
2007,06,26,07,08,12.50
2007,06,26,07,09,12.50
2007,06,26,07,10,12.50
2007,06,26,07,11,12.50
2007,06,26,07,12,12.60
2007,06,26,07,13,12.60
2007,06,26,07,14,12.60
2007,06,26,07,15,12.60
2007,06,26,07,16,12.60
2007,06,26,07,17,12.70
2007,06,26,07,18,12.70
2007,06,26,07,19,12.70
2007,06,26,07,20,12.70
2007,06,26,07,21,12.70
2007,06,26,07,22,12.80
2007,06,26,07,23,12.80
2007,06,26,07,24,12.80
2007,06,26,07,25,12.80
2007,06,26,07,26,12.90
2007,06,26,07,27,12.90
2007,06,26,07,28,12.90
2007,06,26,07,29,12.90
2007,06,26,07,30,12.90
2007,06,26,07,31,13.00
2007,06,26,07,32,13.00
2007,06,26,07,33,13.00
2007,06,26,07,34,13.10
2007,06,26,07,35,13.10
2007,06,26,07,36,13.10
2007,06,26,07,37,13.10
2007,06,26,07,38,13.10
2007,06,26,07,39,13.10
2007,06,26,07,40,13.10
2007,06,26,07,41,13.20
2007,06,26,07,42,13.20
2007,06,26,07,43,13.20
2007,06,26,07,44,13.20
2007,06,26,07,45,13.30
2007,06,26,07,46,13.30
2007,06,26,07,47,13.30
2007,06,26,07,48,13.30
2007,06,26,07,49,13.40
2007,06,26,07,50,13.40
2007,06,26,07,51,13.50
2007,06,26,07,52,13.50
2007,06,26,07,53,13.60
2007,06,26,07,54,13.60
2007,06,26,07,55,13.70
2007,06,26,07,56,13.70
2007,06,26,07,57,13.80
2007,06,26,07,58,13.90
2007,06,26,07,59,13.90
2007,06,26,08,00,14.00
2007,06,26,08,01,14.10
2007,06,26,08,02,14.10
2007,06,26,08,03,14.20
2007,06,26,08,04,14.30
2007,06,26,08,05,14.30
2007,06,26,08,06,14.40
2007,06,26,08,07,14.40
2007,06,26,08,08,14.40
2007,06,26,08,09,14.50
2007,06,26,08,10,14.50
2007,06,26,08,11,14.50
2007,06,26,08,12,14.60
2007,06,26,08,13,14.60
2007,06,26,08,14,14.70
2007,06,26,08,15,14.70
2007,06,26,08,16,14.70
2007,06,26,08,17,14.70
2007,06,26,08,18,14.70
2007,06,26,08,19,14.80
2007,06,26,08,20,14.80
2007,06,26,08,21,14.80
2007,06,26,08,22,14.80
2007,06,26,08,23,14.80
2007,06,26,08,24,14.80
2007,06,26,08,25,14.80
2007,06,26,08,26,14.80
2007,06,26,08,27,14.80
2007,06,26,08,28,14.80
2007,06,26,08,29,14.90
2007,06,26,08,30,15.00
2007,06,26,08,31,15.00
2007,06,26,08,32,15.00
2007,06,26,08,33,15.00
2007,06,26,08,34,15.00
2007,06,26,08,35,15.00
2007,06,26,08,36,15.00
2007,06,26,08,37,15.00
2007,06,26,08,38,15.00
2007,06,26,08,39,15.00
2007,06,26,08,40,15.00
2007,06,26,08,41,15.10
2007,06,26,08,42,15.20
2007,06,26,08,43,15.20
2007,06,26,08,44,15.20
2007,06,26,08,45,15.30
2007,06,26,08,46,15.30
2007,06,26,08,47,15.30
2007,06,26,08,48,15.30
2007,06,26,08,49,15.40
2007,06,26,08,50,15.40
2007,06,26,08,51,15.50
2007,06,26,08,52,15.50
2007,06,26,08,53,15.60
2007,06,26,08,54,15.70
2007,06,26,08,55,15.80
2007,06,26,08,56,15.80
2007,06,26,08,57,15.90
2007,06,26,08,58,15.80
2007,06,26,08,59,15.80
2007,06,26,09,00,15.80
2007,06,26,09,01,15.80
2007,06,26,09,02,15.80
2007,06,26,09,03,15.80
2007,06,26,09,04,15.80
2007,06,26,09,05,15.80
2007,06,26,09,06,15.80
2007,06,26,09,07,15.70
2007,06,26,09,08,15.70
2007,06,26,09,09,15.70
2007,06,26,09,10,15.70
2007,06,26,09,11,15.70
2007,06,26,09,12,15.70
2007,06,26,09,13,15.70
2007,06,26,09,14,15.70
2007,06,26,09,15,15.70
2007,06,26,09,16,15.70
2007,06,26,09,17,15.70
2007,06,26,09,18,15.70
2007,06,26,09,19,15.70
2007,06,26,09,20,15.80
2007,06,26,09,21,15.80
2007,06,26,09,22,15.90
2007,06,26,09,23,16.00
2007,06,26,09,24,16.00
2007,06,26,09,25,16.10
2007,06,26,09,26,16.10
2007,06,26,09,27,16.20
2007,06,26,09,28,16.30
2007,06,26,09,29,16.40
2007,06,26,09,30,16.50
2007,06,26,09,31,16.50
2007,06,26,09,32,16.60
2007,06,26,09,33,16.60
2007,06,26,09,34,16.60
2007,06,26,09,35,16.70
2007,06,26,09,36,16.70
2007,06,26,09,37,16.80
2007,06,26,09,38,16.80
2007,06,26,09,39,16.80
2007,06,26,09,40,16.90
2007,06,26,09,41,16.90
2007,06,26,09,42,16.80
2007,06,26,09,43,16.80
2007,06,26,09,44,16.80
2007,06,26,09,45,16.70
2007,06,26,09,46,16.70
2007,06,26,09,47,16.70
2007,06,26,09,48,16.70
2007,06,26,09,49,16.70
2007,06,26,09,50,16.70
2007,06,26,09,51,16.70
2007,06,26,09,52,16.70
2007,06,26,09,53,16.60
2007,06,26,09,54,16.60
2007,06,26,09,55,16.50
2007,06,26,09,56,16.40
2007,06,26,09,57,16.40
2007,06,26,09,58,16.30
2007,06,26,09,59,16.30
2007,06,26,10,00,16.30
2007,06,26,10,01,16.30
2007,06,26,10,02,16.30
2007,06,26,10,03,16.30
2007,06,26,10,04,16.30
2007,06,26,10,05,16.30
2007,06,26,10,06,16.30
2007,06,26,10,07,16.40
2007,06,26,10,08,16.40
2007,06,26,10,09,16.40
2007,06,26,10,10,16.40
2007,06,26,10,11,16.40
2007,06,26,10,12,16.40
2007,06,26,10,13,16.40
2007,06,26,10,14,16.50
2007,06,26,10,15,16.40
2007,06,26,10,16,16.40
2007,06,26,10,17,16.40
2007,06,26,10,18,16.40
2007,06,26,10,19,16.50
2007,06,26,10,20,16.50
2007,06,26,10,21,16.60
2007,06,26,10,22,16.60
2007,06,26,10,23,16.70
2007,06,26,10,24,16.70
2007,06,26,10,25,16.80
2007,06,26,10,26,16.90
2007,06,26,10,27,17.00
2007,06,26,10,28,17.10
2007,06,26,10,29,17.10
2007,06,26,10,30,17.20
2007,06,26,10,31,17.30
2007,06,26,10,32,17.30
2007,06,26,10,33,17.40
2007,06,26,10,34,17.40
2007,06,26,10,35,17.50
2007,06,26,10,36,17.50
2007,06,26,10,37,17.50
2007,06,26,10,38,17.50
2007,06,26,10,39,17.60
2007,06,26,10,40,17.60
2007,06,26,10,41,17.60
2007,06,26,10,42,17.70
2007,06,26,10,43,17.70
2007,06,26,10,44,17.80
2007,06,26,10,45,17.90
2007,06,26,10,46,17.90
2007,06,26,10,47,17.90
2007,06,26,10,48,17.90
2007,06,26,10,49,17.90
2007,06,26,10,50,17.80
2007,06,26,10,51,17.80
2007,06,26,10,52,17.80
2007,06,26,10,53,17.80
2007,06,26,10,54,17.80
2007,06,26,10,55,17.90
2007,06,26,10,56,17.90
2007,06,26,10,57,17.90
2007,06,26,10,58,17.90
2007,06,26,10,59,18.00
2007,06,26,11,00,18.00
2007,06,26,11,01,18.00
2007,06,26,11,02,18.00
2007,06,26,11,03,18.00
2007,06,26,11,04,18.10
2007,06,26,11,05,18.10
2007,06,26,11,06,18.10
2007,06,26,11,07,18.20
2007,06,26,11,08,18.20
2007,06,26,11,09,18.30
2007,06,26,11,10,18.30
2007,06,26,11,11,18.30
2007,06,26,11,12,18.40
2007,06,26,11,13,18.40
2007,06,26,11,14,18.40
2007,06,26,11,15,18.50
2007,06,26,11,16,18.60
2007,06,26,11,17,18.60
2007,06,26,11,18,18.70
2007,06,26,11,19,18.70
2007,06,26,11,20,18.80
2007,06,26,11,21,18.80
2007,06,26,11,22,18.80
2007,06,26,11,23,18.80
2007,06,26,11,24,18.70
2007,06,26,11,25,18.70
2007,06,26,11,26,18.70
2007,06,26,11,27,18.70
2007,06,26,11,28,18.70
2007,06,26,11,29,18.70
2007,06,26,11,30,18.70
2007,06,26,11,31,18.80
2007,06,26,11,32,18.80
2007,06,26,11,33,18.90
2007,06,26,11,34,19.00
2007,06,26,11,35,19.10
2007,06,26,11,36,19.20
2007,06,26,11,37,19.30
2007,06,26,11,38,19.40
2007,06,26,11,39,19.50
2007,06,26,11,40,19.50
2007,06,26,11,41,19.60
2007,06,26,11,42,19.70
2007,06,26,11,43,19.70
2007,06,26,11,44,19.70
2007,06,26,11,45,19.70
2007,06,26,11,46,19.60
2007,06,26,11,47,19.60
2007,06,26,11,48,19.60
2007,06,26,11,49,19.70
2007,06,26,11,50,19.70
2007,06,26,11,51,19.70
2007,06,26,11,52,19.80
2007,06,26,11,53,19.80
2007,06,26,11,54,19.80
2007,06,26,11,55,19.70
2007,06,26,11,56,19.80
2007,06,26,11,57,19.80
2007,06,26,11,58,19.80
2007,06,26,11,59,19.90
2007,06,26,12,00,20.00
2007,06,26,12,01,20.00
2007,06,26,12,02,20.00
2007,06,26,12,03,20.00
2007,06,26,12,04,20.10
2007,06,26,12,05,20.10
2007,06,26,12,06,20.10
2007,06,26,12,07,20.10
2007,06,26,12,08,20.10
2007,06,26,12,09,20.10
2007,06,26,12,10,20.20
2007,06,26,12,11,20.20
2007,06,26,12,12,20.30
2007,06,26,12,13,20.40
2007,06,26,12,14,20.50
2007,06,26,12,15,20.50
2007,06,26,12,16,20.60
2007,06,26,12,17,20.60
2007,06,26,12,18,20.60
2007,06,26,12,19,20.70
2007,06,26,12,20,20.80
2007,06,26,12,21,20.90
2007,06,26,12,22,21.00
2007,06,26,12,23,21.10
2007,06,26,12,24,21.10
2007,06,26,12,25,21.10
2007,06,26,12,26,21.20
2007,06,26,12,27,21.30
2007,06,26,12,28,21.30
2007,06,26,12,29,21.20
2007,06,26,12,30,21.10
2007,06,26,12,31,21.10
2007,06,26,12,32,21.00
2007,06,26,12,33,21.00
2007,06,26,12,34,21.00
2007,06,26,12,35,20.90
2007,06,26,12,36,20.90
2007,06,26,12,37,20.90
2007,06,26,12,38,20.80
2007,06,26,12,39,20.90
2007,06,26,12,40,20.90
2007,06,26,12,41,21.10
2007,06,26,12,42,21.20
2007,06,26,12,43,21.40
2007,06,26,12,44,21.40
2007,06,26,12,45,21.40
2007,06,26,12,46,21.30
2007,06,26,12,47,21.20
2007,06,26,12,48,21.10
2007,06,26,12,49,21.10
2007,06,26,12,50,21.10
2007,06,26,12,51,21.10
2007,06,26,12,52,21.20
2007,06,26,12,53,21.20
2007,06,26,12,54,21.20
2007,06,26,12,55,21.20
2007,06,26,12,56,21.20
2007,06,26,12,57,21.20
2007,06,26,12,58,21.30
2007,06,26,12,59,21.30
2007,06,26,13,00,21.30
2007,06,26,13,01,21.40
2007,06,26,13,02,21.50
2007,06,26,13,03,21.60
2007,06,26,13,04,21.60
2007,06,26,13,05,21.60
2007,06,26,13,06,21.50
2007,06,26,13,07,21.40
2007,06,26,13,08,21.50
2007,06,26,13,09,21.50
2007,06,26,13,10,21.40
2007,06,26,13,11,21.30
2007,06,26,13,12,21.30
2007,06,26,13,13,21.30
2007,06,26,13,14,21.30
2007,06,26,13,15,21.30
2007,06,26,13,16,21.30
2007,06,26,13,17,21.40
2007,06,26,13,18,21.50
2007,06,26,13,19,21.60
2007,06,26,13,20,21.60
2007,06,26,13,21,21.70
2007,06,26,13,22,21.70
2007,06,26,13,23,21.80
2007,06,26,13,24,21.80
2007,06,26,13,25,21.80
2007,06,26,13,26,21.90
2007,06,26,13,27,22.00
2007,06,26,13,28,22.10
2007,06,26,13,29,22.20
2007,06,26,13,30,22.30
2007,06,26,13,31,22.30
2007,06,26,13,32,22.30
2007,06,26,13,33,22.30
2007,06,26,13,34,22.40
2007,06,26,13,35,22.40
2007,06,26,13,36,22.50
2007,06,26,13,37,22.50
2007,06,26,13,38,22.50
2007,06,26,13,39,22.60
2007,06,26,13,40,22.60
2007,06,26,13,41,22.60
2007,06,26,13,42,22.60
2007,06,26,13,43,22.60
2007,06,26,13,44,22.60
2007,06,26,13,45,22.70
2007,06,26,13,46,22.80
2007,06,26,13,47,22.80
2007,06,26,13,48,22.80
2007,06,26,13,49,22.80
2007,06,26,13,50,22.80
2007,06,26,13,51,22.70
2007,06,26,13,52,22.60
2007,06,26,13,53,22.50
2007,06,26,13,54,22.50
2007,06,26,13,55,22.60
2007,06,26,13,56,22.60
2007,06,26,13,57,22.60
2007,06,26,13,58,22.60
2007,06,26,13,59,22.50
2007,06,26,14,00,22.60
2007,06,26,14,01,22.60
2007,06,26,14,02,22.60
2007,06,26,14,03,22.70
2007,06,26,14,04,22.70
2007,06,26,14,05,22.70
2007,06,26,14,06,22.70
2007,06,26,14,07,22.80
2007,06,26,14,08,22.80
2007,06,26,14,09,22.70
2007,06,26,14,10,22.60
2007,06,26,14,11,22.60
2007,06,26,14,12,22.50
2007,06,26,14,13,22.50
2007,06,26,14,14,22.50
2007,06,26,14,15,22.40
2007,06,26,14,16,22.40
2007,06,26,14,17,22.30
2007,06,26,14,18,22.40
2007,06,26,14,19,22.40
2007,06,26,14,20,22.40
2007,06,26,14,21,22.40
2007,06,26,14,22,22.40
2007,06,26,14,23,22.30
2007,06,26,14,24,22.20
2007,06,26,14,25,22.20
2007,06,26,14,26,22.20
2007,06,26,14,27,22.20
2007,06,26,14,28,22.30
2007,06,26,14,29,22.30
2007,06,26,14,30,22.40
2007,06,26,14,31,22.50
2007,06,26,14,32,22.60
2007,06,26,14,33,22.60
2007,06,26,14,34,22.70
2007,06,26,14,35,22.70
2007,06,26,14,36,22.70
2007,06,26,14,37,22.70
2007,06,26,14,38,22.60
2007,06,26,14,39,22.50
2007,06,26,14,40,22.40
2007,06,26,14,41,22.30
2007,06,26,14,42,22.20
2007,06,26,14,43,22.20
2007,06,26,14,44,22.10
2007,06,26,14,45,22.20
2007,06,26,14,46,22.20
2007,06,26,14,47,22.30
2007,06,26,14,48,22.40
2007,06,26,14,49,22.40
2007,06,26,14,50,22.30
2007,06,26,14,51,22.40
2007,06,26,14,52,22.40
2007,06,26,14,53,22.40
2007,06,26,14,54,22.40
2007,06,26,14,55,22.50
2007,06,26,14,56,22.40
2007,06,26,14,57,22.40
2007,06,26,14,58,22.40
2007,06,26,14,59,22.30
2007,06,26,15,00,22.30
2007,06,26,15,01,22.30
2007,06,26,15,02,22.40
2007,06,26,15,03,22.40
2007,06,26,15,04,22.50
2007,06,26,15,05,22.60
2007,06,26,15,06,22.60
2007,06,26,15,07,22.70
2007,06,26,15,08,22.70
2007,06,26,15,09,22.70
2007,06,26,15,10,22.70
2007,06,26,15,11,22.70
2007,06,26,15,12,22.70
2007,06,26,15,13,22.70
2007,06,26,15,14,22.70
2007,06,26,15,15,22.70
2007,06,26,15,16,22.60
2007,06,26,15,17,22.50
2007,06,26,15,18,22.50
2007,06,26,15,19,22.40
2007,06,26,15,20,22.40
2007,06,26,15,21,22.30
2007,06,26,15,22,22.30
2007,06,26,15,23,22.30
2007,06,26,15,24,22.30
2007,06,26,15,25,22.30
2007,06,26,15,26,22.20
2007,06,26,15,27,22.30
2007,06,26,15,28,22.30
2007,06,26,15,29,22.30
2007,06,26,15,30,22.30
2007,06,26,15,31,22.30
2007,06,26,15,32,22.30
2007,06,26,15,33,22.30
2007,06,26,15,34,22.20
2007,06,26,15,35,22.10
2007,06,26,15,36,21.90
2007,06,26,15,37,21.70
2007,06,26,15,38,21.50
2007,06,26,15,39,21.30
2007,06,26,15,40,21.10
2007,06,26,15,41,20.90
2007,06,26,15,42,20.80
2007,06,26,15,43,20.70
2007,06,26,15,44,20.60
2007,06,26,15,45,20.60
2007,06,26,15,46,20.50
2007,06,26,15,47,20.50
2007,06,26,15,48,20.50
2007,06,26,15,49,20.50
2007,06,26,15,50,20.50
2007,06,26,15,51,20.50
2007,06,26,15,52,20.60
2007,06,26,15,53,20.60
2007,06,26,15,54,20.60
2007,06,26,15,55,20.70
2007,06,26,15,56,20.70
2007,06,26,15,57,20.80
2007,06,26,15,58,20.80
2007,06,26,15,59,20.80
2007,06,26,16,00,20.90
2007,06,26,16,01,20.90
2007,06,26,16,02,20.90
2007,06,26,16,03,20.90
2007,06,26,16,04,20.90
2007,06,26,16,05,20.90
2007,06,26,16,06,20.90
2007,06,26,16,07,20.80
2007,06,26,16,08,20.80
2007,06,26,16,09,20.70
2007,06,26,16,10,20.60
2007,06,26,16,11,20.50
2007,06,26,16,12,20.40
2007,06,26,16,13,20.40
2007,06,26,16,14,20.30
2007,06,26,16,15,20.20
2007,06,26,16,16,20.20
2007,06,26,16,17,20.20
2007,06,26,16,18,20.20
2007,06,26,16,19,20.30
2007,06,26,16,20,20.30
2007,06,26,16,21,20.30
2007,06,26,16,22,20.30
2007,06,26,16,23,20.30
2007,06,26,16,24,20.30
2007,06,26,16,25,20.30
2007,06,26,16,26,20.30
2007,06,26,16,27,20.20
2007,06,26,16,28,20.20
2007,06,26,16,29,20.10
2007,06,26,16,30,20.00
2007,06,26,16,31,19.90
2007,06,26,16,32,19.90
2007,06,26,16,33,19.90
2007,06,26,16,34,19.90
2007,06,26,16,35,19.90
2007,06,26,16,36,19.90
2007,06,26,16,37,19.90
2007,06,26,16,38,19.90
2007,06,26,16,39,20.00
2007,06,26,16,40,20.00
2007,06,26,16,41,20.00
2007,06,26,16,42,20.00
2007,06,26,16,43,20.00
2007,06,26,16,44,20.10
2007,06,26,16,45,20.10
2007,06,26,16,46,20.20
2007,06,26,16,47,20.20
2007,06,26,16,48,20.20
2007,06,26,16,49,20.30
2007,06,26,16,50,20.30
2007,06,26,16,51,20.30
2007,06,26,16,52,20.40
2007,06,26,16,53,20.40
2007,06,26,16,54,20.40
2007,06,26,16,55,20.40
2007,06,26,16,56,20.40
2007,06,26,16,57,20.50
2007,06,26,16,58,20.50
2007,06,26,16,59,20.50
2007,06,26,17,00,20.50
2007,06,26,17,01,20.40
2007,06,26,17,02,20.40
2007,06,26,17,03,20.40
2007,06,26,17,04,20.40
2007,06,26,17,05,20.40
2007,06,26,17,06,20.40
2007,06,26,17,07,20.40
2007,06,26,17,08,20.40
2007,06,26,17,09,20.30
2007,06,26,17,10,20.30
2007,06,26,17,11,20.30
2007,06,26,17,12,20.30
2007,06,26,17,13,20.30
2007,06,26,17,14,20.30
2007,06,26,17,15,20.40
2007,06,26,17,16,20.40
2007,06,26,17,17,20.30
2007,06,26,17,18,20.30
2007,06,26,17,19,20.30
2007,06,26,17,20,20.20
2007,06,26,17,21,20.20
2007,06,26,17,22,20.20
2007,06,26,17,23,20.20
2007,06,26,17,24,20.10
2007,06,26,17,25,20.20
2007,06,26,17,26,20.20
2007,06,26,17,27,20.20
2007,06,26,17,28,20.20
2007,06,26,17,29,20.20
2007,06,26,17,30,20.20
2007,06,26,17,31,20.20
2007,06,26,17,32,20.20
2007,06,26,17,33,20.20
2007,06,26,17,34,20.20
2007,06,26,17,35,20.10
2007,06,26,17,36,20.10
2007,06,26,17,37,20.10
2007,06,26,17,38,20.10
2007,06,26,17,39,20.10
2007,06,26,17,40,20.10
2007,06,26,17,41,20.10
2007,06,26,17,42,20.10
2007,06,26,17,43,20.10
2007,06,26,17,44,20.10
2007,06,26,17,45,20.20
2007,06,26,17,46,20.20
2007,06,26,17,47,20.10
2007,06,26,17,48,20.10
2007,06,26,17,49,20.00
2007,06,26,17,50,20.00
2007,06,26,17,51,19.90
2007,06,26,17,52,19.90
2007,06,26,17,53,19.90
2007,06,26,17,54,19.90
2007,06,26,17,55,19.80
2007,06,26,17,56,19.80
2007,06,26,17,57,19.80
2007,06,26,17,58,19.80
2007,06,26,17,59,19.80
2007,06,26,18,00,19.80
2007,06,26,18,01,19.80
2007,06,26,18,02,19.80
2007,06,26,18,03,19.80
2007,06,26,18,04,19.80
2007,06,26,18,05,19.80
2007,06,26,18,06,19.90
2007,06,26,18,07,19.90
2007,06,26,18,08,19.90
2007,06,26,18,09,20.00
2007,06,26,18,10,20.00
2007,06,26,18,11,20.10
2007,06,26,18,12,20.20
2007,06,26,18,13,20.30
2007,06,26,18,14,20.30